sat.trackr.live / text

‹ back to catalog

STARLINK-4623

NORAD 55315 · 2023-010AY

PAYLOAD ACTIVE UNKNOWN

§ Identity

Operator
Country
US
Launch date
2023-01-19
Launch site
AFWTR
Launch vehicle
Mass (kg)
RCS (m²)

Purposes: comms

External: N2YO · Heavens-Above · Gunter

§ Orbital elements

Epoch: 2026-09-20T22:15:28.470240Z

Period
96.11 min
Inclination
69.9981°
Eccentricity
0.0003734
Mean motion
14.98331713 rev/d
Perigee alt
569.5 km
Apogee alt
574.6 km
Semi-major
6,950.2 km
B*
1.4784e-5
RAAN
252.1995°
Arg perigee
268.2632°
Mean anomaly
91.8099°
Rev number
20,250

§ Raw data

STARLINK-46231 55315U 23010AY  26263.92741285  .00000083  00000+0  14784-4 0  99902 55315  69.9981 252.1995 0003734 268.2632  91.8099 14.98331713202507

JSON: /api/v1/satellites/55315 · /tle

For live sub-satellite position, see the globe view (requires WebGL).

§ Visibility from observer

Set your observer location to see the next 7 days of passes ≥ 10°. The values pass through the URL so the page stays shareable.

No JS? Fill the form by hand. The geolocation button needs JavaScript.